N8QF-1 Weather Reports


Display with metric or nautical units.
time (UTC)temp
F
wind
direction
speed
MPH
gust
MPH
rain 1hr
in
rain 24hr
in
rain mn
in
humidity
%
barometer
mb
20260506062230 48 37 6.0 11.0 0.13 0.82 0.16 97 1007.6
20260506061728 48 15 7.0 11.0 0.13 0.82 0.15 97 1007.5
20260506061227 48 25 7.0 14.0 0.13 0.82 0.15 97 1007.3
20260506060226 48 0 4.0 14.0 0.13 0.82 0.14 97 1007.4
20260506051218 48 322 13.0 19.0 0.14 0.82 0.06 97 1008.1
20260506050718 49 301 11.0 16.0 0.14 0.82 0.04 97 1007.7
20260506044215 50 332 10.0 12.0 0.06 0.00 0.80 100 1007.3
20260506043715 50 346 8.0 14.0 0.06 0.00 0.80 99 1007.2
20260506043214 50 321 7.0 16.0 0.06 0.00 0.79 98 1007.3
20260506042714 50 6 11.0 15.0 0.06 0.00 0.77 98 1007.5
20260506042213 50 315 6.0 23.0 0.06 0.00 0.76 100 1007.5
20260506041712 50 329 11.0 18.0 0.06 0.00 0.75 100 1007.4
20260506041211 50 0 9.0 16.0 0.06 0.00 0.73 100 1007.3
20260506040710 50 307 11.0 16.0 0.06 0.00 0.71 100 1007.4
20260506040209 51 309 8.0 16.0 0.06 0.00 0.69 100 1007.5
20260506035708 51 343 9.0 15.0 0.06 0.00 0.68 98 1007.2
20260506035208 51 305 8.0 12.0 0.08 0.00 0.67 98 1007.1
20260506034707 51 357 6.0 12.0 0.08 0.00 0.65 98 1007.0
20260506034207 51 15 5.0 12.0 0.08 0.00 0.64 98 1007.0
20260506033706 51 349 7.0 12.0 0.08 0.00 0.63 98 1007.1
20260506033206 51 345 6.0 12.0 0.08 0.00 0.63 98 1007.0
20260506032705 51 357 3.0 11.0 0.08 0.00 0.63 98 1007.0
20260506032205 51 336 5.0 12.0 0.08 0.00 0.63 98 1006.9
20260506031704 51 58 6.0 13.0 0.08 0.00 0.63 98 1007.0
20260506031202 52 6 5.0 11.0 0.08 0.00 0.63 98 1007.1
20260506030702 52 30 7.0 9.0 0.08 0.00 0.63 98 1007.2
20260506030201 52 340 6.0 8.0 0.08 0.00 0.62 98 1007.4
20260506025701 52 10 3.0 11.0 0.08 0.00 0.62 98 1007.2
20260506025200 52 352 5.0 11.0 0.10 0.00 0.62 98 1007.3
20260506024700 52 342 5.0 11.0 0.10 0.00 0.62 97 1007.3
20260506024159 51 37 8.0 15.0 0.10 0.00 0.62 97 1007.4
20260506023659 52 3 7.0 12.0 0.10 0.00 0.61 97 1007.7
20260506023158 52 326 7.0 15.0 0.10 0.00 0.60 97 1007.9
20260506022658 52 17 9.0 11.0 0.10 0.00 0.60 97 1007.9
20260506022157 52 353 8.0 11.0 0.10 0.00 0.59 97 1008.0
20260506021657 53 352 7.0 15.0 0.10 0.00 0.59 96 1007.9
20260506021156 53 359 8.0 13.0 0.10 0.00 0.58 96 1008.0
20260506020656 54 342 8.0 12.0 0.10 0.00 0.56 95 1008.0
20260506020155 56 98 3.0 14.0 0.10 0.00 0.55 95 1007.9
20260506015655 57 353 7.0 14.0 0.10 0.00 0.54 92 1007.9
20260506015153 60 253 0.0 1.0 0.06 0.00 0.53 95 1007.8
20260506014654 60 231 0.0 4.0 0.06 0.00 0.52 94 1007.7
20260506013652 60 250 1.0 7.0 0.06 0.00 0.52 94 1007.4
20260506013152 60 225 4.0 7.0 0.06 0.00 0.52 94 1007.4
20260506012151 60 233 1.0 3.0 0.06 0.00 0.51 94 1007.4
20260506011650 61 248 0.0 4.0 0.06 0.00 0.51 94 1007.4
20260506011149 61 245 2.0 4.0 0.06 0.00 0.50 94 1007.4
20260506010648 61 250 1.0 6.0 0.06 0.00 0.49 94 1007.6
20260506010148 61 221 3.0 5.0 0.06 0.00 0.48 94 1007.5
20260506005647 61 270 1.0 6.0 0.06 0.00 0.45 94 1007.5
20260506005147 61 257 3.0 8.0 0.05 0.00 0.42 93 1007.6
20260506004646 61 238 5.0 6.0 0.05 0.00 0.41 93 1007.5
20260506004146 61 226 4.0 8.0 0.05 0.00 0.41 93 1007.3
20260506003644 61 235 2.0 4.0 0.05 0.00 0.41 93 1007.1
20260506003144 61 191 0.0 3.0 0.05 0.00 0.41 93 1007.0
20260506002143 61 188 2.0 8.0 0.05 0.00 0.41 93 1007.0
20260506001642 61 204 4.0 7.0 0.05 0.00 0.40 93 1006.9
20260506001142 61 136 0.0 5.0 0.05 0.00 0.40 94 1006.9
20260506000141 61 165 5.0 6.0 0.05 0.00 0.38 94 1007.0
20260505235640 61 211 0.0 5.0 0.05 0.00 0.38 94 1007.1
20260505235139 61 173 0.0 4.0 0.05 0.00 0.37 94 1007.1
20260505234638 61 131 0.0 5.0 0.05 0.00 0.37 93 1007.1
20260505234137 61 148 2.0 8.0 0.05 0.00 0.36 93 1007.0
20260505233637 61 142 2.0 6.0 0.05 0.00 0.36 93 1007.1
20260505233138 61 159 3.0 6.0 0.05 0.00 0.36 93 1007.2
20260505232636 61 215 2.0 8.0 0.05 0.00 0.35 93 1007.2
20260505232134 61 210 3.0 7.0 0.05 0.00 0.35 93 1007.2
20260505231634 61 184 3.0 6.0 0.05 0.00 0.35 93 1007.2
20260505231133 62 198 1.0 7.0 0.05 0.00 0.34 93 1007.2
20260505230633 62 208 3.0 7.0 0.05 0.00 0.34 93 1007.3
20260505230134 61 169 5.0 8.0 0.05 0.00 0.33 93 1007.3
20260505225632 61 153 7.0 10.0 0.05 0.00 0.33 93 1007.3
20260505225131 61 201 0.0 8.0 0.08 0.00 0.33 93 1007.4
20260505224630 61 215 4.0 9.0 0.08 0.00 0.33 93 1007.5
20260505223127 61 225 5.0 7.0 0.08 0.00 0.32 94 1007.7
20260505222127 61 204 5.0 11.0 0.08 0.00 0.32 94 1007.9
20260505220624 61 177 0.0 11.0 0.08 0.00 0.29 93 1008.0
20260505220124 61 191 4.0 7.0 0.08 0.00 0.29 93 1007.9
20260505215623 61 181 7.0 10.0 0.08 0.00 0.28 93 1008.1
20260505215123 61 188 4.0 10.0 0.05 0.00 0.28 94 1008.0
20260505214622 61 204 3.0 10.0 0.05 0.00 0.28 94 1007.9
20260505214122 61 217 8.0 13.0 0.05 0.00 0.28 93 1007.9
20260505213621 61 194 8.0 12.0 0.05 0.00 0.27 93 1007.9
20260505213121 61 148 6.0 9.0 0.05 0.00 0.24 92 1008.0
20260505212620 61 148 8.0 12.0 0.05 0.00 0.22 92 1008.0
20260505212120 62 203 3.0 6.0 0.05 0.00 0.21 91 1008.0
20260505211619 62 166 1.0 8.0 0.05 0.00 0.20 91 1008.0
20260505210617 62 259 5.0 10.0 0.05 0.00 0.20 91 1008.2
20260505210116 61 211 4.0 8.0 0.05 0.00 0.20 91 1008.1
20260505205615 62 231 4.0 7.0 0.05 0.00 0.20 91 1007.9
20260505205115 61 255 5.0 8.0 0.07 0.00 0.20 91 1008.0
20260505204614 61 215 5.0 9.0 0.07 0.00 0.20 91 1008.1
20260505204114 61 233 3.0 13.0 0.07 0.00 0.20 91 1008.1
20260505203613 61 231 5.0 11.0 0.07 0.00 0.19 90 1008.1
20260505203111 61 250 5.0 10.0 0.07 0.00 0.19 90 1008.2
20260505202611 61 229 9.0 17.0 0.07 0.00 0.19 90 1008.2
20260505202110 62 235 6.0 9.0 0.07 0.00 0.18 90 1008.1
20260505201610 62 242 4.0 11.0 0.07 0.00 0.18 89 1008.0
20260505201109 61 190 3.0 10.0 0.07 0.00 0.17 88 1008.1
20260505200609 62 226 6.0 15.0 0.07 0.00 0.17 88 1008.2
20260505200108 62 231 10.0 17.0 0.07 0.00 0.16 87 1008.3
20260505195608 62 229 6.0 10.0 0.07 0.00 0.15 86 1008.5
20260505195107 63 210 6.0 11.0 0.00 0.00 0.14 85 1008.8
20260505194607 63 228 7.0 14.0 0.00 0.00 0.14 83 1008.8
20260505194106 63 217 9.0 21.0 0.00 0.00 0.12 81 1008.9
20260505193606 63 224 11.0 19.0 0.00 0.00 0.11 76 1008.8
20260505192605 67 235 11.0 17.0 0.00 0.00 0.08 64 1008.2
20260505192104 67 245 9.0 13.0 0.00 0.00 0.08 62 1008.1
20260505191600 68 233 6.0 12.0 0.00 0.00 0.08 62 1008.1
20260505191059 68 219 7.0 10.0 0.00 0.00 0.08 62 1008.1
20260505190559 68 231 9.0 12.0 0.00 0.00 0.08 61 1008.2
20260505190058 67 219 10.0 15.0 0.00 0.00 0.08 61 1008.3
20260505185557 68 239 10.0 13.0 0.00 0.00 0.08 61 1008.2
20260505185057 68 217 5.0 8.0 0.00 0.00 0.08 61 1008.3
20260505184556 68 207 7.0 10.0 0.00 0.00 0.08 61 1008.3
20260505184056 68 208 7.0 12.0 0.00 0.00 0.08 61 1008.5
20260505183555 67 183 7.0 12.0 0.00 0.00 0.08 61 1008.6
20260505183055 67 183 6.0 13.0 0.00 0.00 0.08 61 1008.5
20260505182554 67 188 7.0 9.0 0.00 0.00 0.08 61 1008.5
20260505181553 67 180 7.0 12.0 0.00 0.00 0.08 61 1008.8
20260505181054 67 201 7.0 14.0 0.00 0.00 0.08 61 1008.8
20260505180052 67 201 6.0 15.0 0.00 0.00 0.08 60 1008.8
20260505175551 67 231 6.0 14.0 0.00 0.00 0.08 60 1008.9
20260505175051 67 208 10.0 14.0 0.00 0.00 0.08 60 1008.9
20260505174550 67 203 9.0 12.0 0.00 0.00 0.08 60 1008.9
20260505174050 67 201 8.0 13.0 0.00 0.00 0.08 60 1009.0
20260505173549 67 212 8.0 12.0 0.00 0.00 0.08 60 1008.9
20260505173049 67 208 7.0 16.0 0.00 0.00 0.08 60 1009.0
20260505172548 67 218 6.0 14.0 0.00 0.00 0.08 61 1009.1
20260505172048 67 215 7.0 14.0 0.00 0.00 0.08 61 1009.1
20260505171547 67 218 5.0 12.0 0.00 0.00 0.08 61 1009.1
20260505171046 67 233 4.0 9.0 0.00 0.00 0.08 62 1009.1
20260505170546 67 226 9.0 12.0 0.00 0.00 0.08 61 1009.1
20260505170045 67 211 9.0 9.0 0.00 0.00 0.08 61 1009.1
20260505165545 67 187 4.0 14.0 0.00 0.00 0.08 63 1009.2
20260505165044 67 232 7.0 12.0 0.00 0.00 0.08 62 1009.1
20260505164544 67 191 7.0 14.0 0.00 0.00 0.08 62 1009.1
20260505164042 67 238 6.0 14.0 0.00 0.00 0.08 61 1009.1
20260505163542 66 217 3.0 8.0 0.00 0.00 0.08 61 1009.1
20260505162541 67 186 4.0 13.0 0.00 0.00 0.08 61 1009.2
20260505162040 67 200 7.0 18.0 0.00 0.00 0.08 61 1009.2
20260505161540 67 218 9.0 13.0 0.00 0.00 0.08 60 1009.1
20260505161039 68 221 5.0 16.0 0.00 0.00 0.08 62 1009.2
20260505152534 67 193 10.0 17.0 0.00 0.00 0.08 66 1008.9
20260505152033 66 242 9.0 16.0 0.00 0.00 0.08 66 1009.0
20260505151532 66 243 11.0 18.0 0.00 0.00 0.08 67 1009.0
20260505151032 66 181 8.0 13.0 0.00 0.00 0.08 67 1009.0
20260505140525 62 183 8.0 13.0 0.01 0.00 0.08 82 1008.7
20260505125014 59 184 4.0 10.0 0.01 0.00 0.07 92 1008.3
20260505124012 58 131 5.0 11.0 0.01 0.00 0.07 93 1008.1
20260505123512 58 155 6.0 11.0 0.01 0.00 0.07 93 1008.3
20260505123011 58 181 7.0 13.0 0.01 0.00 0.07 93 1008.5
20260505122511 58 193 4.0 10.0 0.01 0.00 0.07 93 1008.4
20260505122010 58 184 4.0 11.0 0.01 0.00 0.07 93 1008.5
20260505121510 58 176 6.0 13.0 0.01 0.00 0.07 93 1008.5
20260505121009 58 198 7.0 11.0 0.01 0.00 0.07 93 1008.5
20260505120008 58 174 5.0 10.0 0.01 0.00 0.07 92 1008.8
20260505115507 58 187 6.0 10.0 0.04 0.00 0.07 92 1008.5
20260505115007 58 169 6.0 11.0 0.04 0.00 0.07 92 1008.6
20260505114506 58 184 8.0 11.0 0.04 0.00 0.07 92 1008.5
20260505114006 58 198 5.0 8.0 0.04 0.00 0.07 92 1008.3
20260505113505 58 186 5.0 8.0 0.04 0.00 0.07 92 1008.2
20260505113005 57 156 5.0 9.0 0.04 0.00 0.07 92 1008.1
20260505112504 57 186 4.0 12.0 0.04 0.00 0.07 92 1008.1
20260505112004 57 187 7.0 8.0 0.04 0.00 0.07 92 1008.0
20260505111503 57 218 4.0 5.0 0.04 0.00 0.06 92 1007.9
20260505111003 57 197 3.0 5.0 0.04 0.00 0.06 92 1007.7
20260505110502 57 181 4.0 7.0 0.04 0.00 0.06 92 1007.4
20260505101456 58 203 2.0 7.0 0.02 0.00 0.05 89 1008.7
20260505100954 58 224 2.0 9.0 0.02 0.00 0.05 88 1008.8
20260505100454 58 270 5.0 9.0 0.02 0.00 0.04 89 1008.9
20260505095953 58 274 6.0 9.0 0.02 0.00 0.03 87 1009.0
20260505095453 59 267 5.0 9.0 0.00 0.00 0.02 87 1008.9
20260505094952 59 277 2.0 11.0 0.00 0.00 0.02 86 1008.9
20260505093950 59 252 8.0 8.0 0.00 0.00 0.01 84 1009.0
20260505093450 60 315 5.0 7.0 0.00 0.00 0.01 83 1008.9
20260505092949 60 280 3.0 9.0 0.00 0.00 0.01 82 1009.0
20260505092449 60 284 5.0 10.0 0.00 0.00 0.00 81 1008.9
20260505091948 61 295 5.0 10.0 0.00 0.00 0.00 80 1008.9
20260505091448 62 323 4.0 8.0 0.00 0.00 0.00 77 1008.7
20260505090947 62 295 5.0 7.0 0.00 0.00 0.00 74 1008.3
20260505090447 63 3 4.0 9.0 0.00 0.00 0.00 71 1007.9
20260505085946 63 264 7.0 9.0 0.00 0.00 0.00 70 1008.4
20260505085445 63 308 3.0 9.0 0.00 0.00 0.00 70 1008.0
20260505084945 63 300 5.0 8.0 0.00 0.00 0.00 69 1008.3
20260505084444 63 277 4.0 6.0 0.00 0.00 0.00 68 1007.9
20260505083441 64 305 1.0 5.0 0.00 0.00 0.00 67 1007.5
20260505082941 64 319 3.0 7.0 0.00 0.00 0.00 67 1007.5
20260505082440 64 294 4.0 8.0 0.00 0.00 0.00 64 1007.4
20260505081940 64 277 2.0 8.0 0.00 0.00 0.00 64 1007.3
20260505081439 65 347 2.0 8.0 0.00 0.00 0.00 62 1007.1
20260505080939 65 350 4.0 12.0 0.00 0.00 0.00 60 1007.2
20260505075937 67 293 6.0 12.0 0.00 0.00 0.00 54 1007.3
20260505075436 67 276 7.0 13.0 0.00 0.00 0.00 53 1007.4
20260505074435 68 238 5.0 15.0 0.00 0.00 0.00 51 1006.9
20260505073434 68 231 8.0 11.0 0.00 0.00 0.00 51 1006.8
20260505072934 68 233 7.0 11.0 0.00 0.00 0.00 51 1006.7
20260505072433 68 233 7.0 14.0 0.00 0.00 0.00 51 1006.7
20260505071432 68 236 10.0 14.0 0.00 0.00 0.00 50 1006.7
20260505070931 68 256 6.0 12.0 0.00 0.00 0.00 49 1006.6
20260505070431 69 233 5.0 16.0 0.00 0.00 0.00 49 1006.7